Probability
0 0 0 0 0 0 0 0 0 0 0 0 0 0 0 0 0 0 13 23 29 42 58 61 74 58 58 58 61 61 55 55 48 42 39 32 32 35 32 29 29 29 29 26 26 23 23 26 23
0 0 0 0 0 0 0 0 0 0 0 0 0 0 0 0 3 6 19 26 32 42 55 52 58 61 55 55 55 55 55 52 45 32 32 32 32 32 32 29 29 26 29 26 26 23 10 13 16
0 0 0 0 0 0 0 0 0 0 0 0 0 3 3 3 3 13 16 26 35 48 45 48 58 55 55 55 52 52 48 45 42 39 32 35 32 32 32 26 26 26 26 26 19 13 10 10 10
0 0 0 0 0 0 0 0 0 0 0 0 0 3 3 6 6 13 19 26 42 42 45 55 61 58 55 55 48 45 42 42 39 39 45 35 32 26 19 23 23 23 16 16 13 10 10 6 6
0 0 0 0 0 0 0 0 0 0 0 0 0 3 6 6 13 16 19 32 35 35 42 52 61 58 55 52 52 45 45 42 39 42 45 35 26 23 19 19 19 16 13 10 13 6 3 3 3
0 0 0 0 0 0 0 0 0 0 0 0 0 3 6 10 19 16 23 39 35 32 39 48 58 58 55 52 52 48 48 45 45 45 39 32 26 19 19 23 13 10 10 13 10 6 3 3 3
0 0 0 0 0 0 0 0 0 0 0 0 0 3 6 13 19 23 29 32 35 35 45 45 52 48 52 52 48 48 45 45 42 42 42 32 32 23 23 13 13 10 13 10 6 3 0 0 0
0 0 0 0 0 0 0 0 0 0 0 0 0 6 6 13 16 23 29 32 32 35 42 45 42 42 48 45 45 45 35 35 32 32 26 19 19 19 16 13 13 10 3 0 3 0 0 3 0
0 0 0 0 0 0 0 0 0 0 0 0 0 6 6 10 23 19 26 29 29 35 35 39 35 39 39 42 29 29 29 26 26 29 10 10 16 16 10 3 3 3 3 0 0 0 0 0 0
0 0 0 0 0 0 0 0 0 0 0 0 3 3 6 13 13 16 19 26 29 35 39 32 32 29 35 29 29 32 29 26 29 29 13 16 13 10 3 0 0 3 0 0 0 0 0 0 0
0 0 0 0 0 0 0 0 0 0 0 0 3 3 10 13 13 10 19 19 26 32 32 32 29 26 26 29 29 23 23 23 19 19 16 13 3 3 3 0 0 0 0 0 0 0 0 0 0
0 0 0 0 0 0 0 0 0 0 0 0 3 3 10 10 13 10 10 16 26 29 29 32 26 26 23 23 19 23 23 23 13 13 13 6 3 3 0 0 0 3 0 0 0 0 0 0 0
0 0 0 0 0 0 0 0 0 0 0 0 3 3 10 10 13 10 10 10 26 29 29 29 26 23 23 19 16 16 19 16 16 13 6 6 6 0 0 0 0 0 0 0 0 0 0 0 0
0 0 0 0 0 0 0 0 0 0 0 0 3 3 10 6 13 16 10 10 23 26 29 26 23 23 23 19 19 10 10 13 6 6 6 6 3 0 0 0 0 0 0 0 0 0 0 0 0
0 0 0 0 0 0 0 0 0 0 0 3 3 3 6 6 10 10 6 13 19 23 23 19 19 23 19 13 16 16 10 10 3 3 3 3 3 3 0 0 0 0 0 0 0 0 0 0 0
0 0 0 0 0 0 0 0 0 0 3 3 3 3 3 10 3 10 6 3 10 16 19 13 16 19 19 16 10 6 3 3 3 0 0 0 3 3 0 0 0 0 0 0 0 0 0 0 0
0 0 0 0 0 0 0 0 0 0 0 0 0 0 3 3 3 3 3 6 6 13 13 13 16 16 16 13 10 6 0 0 0 0 0 0 0 0 0 0 0 0 0 0 0 0 0 0 0
0 0 0 0 0 0 0 0 0 0 0 0 0 0 3 3 3 3 0 0 0 6 13 13 10 10 10 10 0 3 3 0 0 0 0 0 0 0 0 0 0 0 0 0 0 0 0 0 0
0 0 0 0 0 0 0 0 0 0 0 0 0 0 3 3 3 3 0 0 0 0 6 6 3 10 6 6 3 3 3 0 0 0 0 0 0 0 0 0 0 0 0 0 0 0 0 0 0
0 0 0 0 0 0 0 0 0 0 0 0 0 0 3 3 3 0 0 0 0 0 3 3 0 0 0 3 3 3 3 0 0 0 0 0 0 0 0 0 0 0 0 0 0 0 0 0 0
0 0 0 0 0 0 0 0 0 0 0 0 0 0 0 3 0 0 0 0 0 0 0 0 0 0 0 0 0 0 0 0 0 0 0 0 0 0 0 0 0 0 0 0 0 0 0 0 0
0 0 0 0 0 0 0 0 0 0 0 0 0 0 3 3 0 0 0 0 0 0 0 0 3 0 0 0 0 0 0 0 0 0 0 0 0 0 0 0 0 0 0 0 0 0 0 0 0
0 0 0 0 0 0 0 0 0 0 0 0 0 0 0 3 0 0 0 0 0 0 0 0 3 0 0 0 0 0 0 0 0 0 0 0 0 0 0 0 0 0 0 0 0 0 0 0 0
0 0 0 0 0 0 0 0 0 0 0 0 0 0 0 0 0 0 0 0 0 0 0 3 3 0 0 0 0 0 0 0 0 0 0 0 0 0 0 0 0 0 0 0 0 0 0 0 0
0 0 0 0 0 0 0 0 0 0 0 0 0 0 0 0 0 0 0 0 0 0 0 3 3 0 0 0 0 0 0 0 0 0 0 0 0 0 0 0 0 0 0 0 0 0 0 0 0
0 0 0 0 0 0 0 0 0 0 0 0 0 0 0 0 0 0 0 0 0 0 0 3 3 3 0 0 3 3 3 0 0 0 0 0 0 0 0 0 0 0 0 0 0 0 0 0 0
0 0 0 0 0 0 0 0 0 0 0 0 0 0 0 0 0 0 0 0 0 0 0 3 3 3 0 0 3 3 3 3 0 0 0 0 0 0 0 0 0 0 0 0 0 0 0 0 0
0 0 0 0 0 0 0 0 0 0 0 0 0 0 0 0 0 0 0 0 0 0 0 3 3 3 3 0 0 0 3 3 3 0 0 0 0 0 0 0 0 0 0 0 0 0 0 0 0
0 0 0 0 0 0 0 0 0 0 0 0 0 0 0 0 0 0 0 0 0 0 0 3 3 3 3 3 3 0 3 3 3 3 0 0 0 0 0 0 0 0 0 0 0 0 0 0 0
0 0 0 0 0 0 0 0 0 0 0 0 0 0 0 0 0 0 0 0 0 0 0 3 3 3 3 3 3 0 0 3 3 3 0 0 0 0 0 0 0 0 0 0 0 0 0 0 0
Height
5818 5821 5823 5825 5826 5827 5830 5835 5840 5844 5846 5848 5850 5852 5854 5856 5858 5861 5861 5861 5862 5864 5865 5866 5867 5868 5869 5870 5871 5871 5872 5873 5873 5874 5874 5874 5874 5874 5874 5874 5874 5874 5874 5874 5873 5873 5872 5871 5871
5810 5812 5815 5816 5817 5819 5824 5830 5834 5838 5840 5842 5844 5846 5848 5850 5852 5854 5855 5857 5858 5860 5861 5863 5864 5865 5866 5867 5868 5869 5870 5870 5871 5871 5872 5872 5872 5872 5872 5873 5873 5872 5872 5872 5871 5871 5870 5870 5869
5800 5803 5805 5806 5808 5813 5819 5823 5827 5830 5832 5835 5837 5839 5841 5844 5847 5848 5850 5852 5854 5856 5857 5859 5860 5862 5863 5864 5865 5866 5867 5868 5868 5869 5869 5870 5870 5870 5870 5871 5871 5871 5870 5870 5870 5869 5869 5868 5867
5791 5793 5795 5797 5800 5808 5811 5815 5818 5821 5824 5827 5829 5832 5835 5839 5841 5843 5845 5847 5849 5851 5853 5855 5857 5858 5859 5860 5861 5862 5864 5864 5865 5866 5866 5867 5867 5868 5868 5868 5868 5868 5868 5868 5867 5867 5866 5866 5865
5780 5782 5784 5787 5793 5799 5802 5806 5809 5812 5815 5818 5821 5824 5828 5831 5834 5837 5839 5841 5844 5846 5848 5850 5852 5854 5855 5856 5858 5859 5860 5861 5862 5862 5863 5864 5864 5865 5865 5865 5866 5865 5865 5865 5865 5864 5864 5863 5862
5769 5771 5774 5778 5785 5789 5793 5796 5798 5802 5805 5809 5812 5815 5819 5823 5826 5830 5832 5835 5837 5840 5843 5845 5847 5849 5851 5852 5854 5855 5856 5857 5858 5859 5859 5860 5861 5861 5862 5862 5862 5862 5862 5862 5861 5861 5860 5860 5859
5758 5760 5763 5769 5774 5779 5782 5785 5788 5791 5795 5799 5802 5805 5810 5814 5818 5821 5824 5828 5831 5834 5836 5839 5841 5844 5846 5847 5849 5850 5852 5853 5854 5855 5855 5856 5857 5857 5858 5858 5859 5859 5859 5859 5858 5858 5857 5856 5856
5746 5749 5752 5757 5762 5768 5771 5774 5777 5780 5784 5788 5791 5795 5800 5805 5808 5812 5816 5820 5823 5827 5830 5833 5835 5838 5840 5842 5843 5845 5847 5848 5849 5850 5851 5852 5852 5853 5854 5854 5855 5855 5855 5855 5854 5854 5853 5853 5852
5734 5737 5741 5747 5751 5755 5759 5762 5766 5769 5773 5777 5781 5785 5790 5794 5799 5803 5807 5812 5816 5820 5823 5826 5829 5831 5834 5836 5837 5839 5841 5842 5843 5845 5845 5846 5847 5848 5849 5850 5850 5850 5850 5850 5850 5850 5849 5848 5847
5722 5725 5731 5735 5738 5742 5745 5749 5753 5757 5762 5766 5771 5775 5779 5784 5789 5794 5799 5804 5808 5812 5816 5819 5822 5825 5827 5829 5831 5833 5834 5836 5837 5839 5840 5841 5842 5843 5844 5844 5845 5845 5845 5845 5845 5845 5844 5844 5843
5712 5716 5720 5723 5726 5728 5732 5736 5740 5745 5751 5756 5760 5765 5770 5775 5780 5785 5790 5795 5799 5804 5808 5812 5815 5817 5820 5822 5824 5826 5828 5830 5831 5832 5833 5835 5836 5837 5838 5838 5839 5840 5840 5840 5840 5840 5839 5839 5838
5702 5705 5708 5711 5714 5717 5720 5724 5729 5733 5740 5745 5750 5755 5760 5765 5771 5776 5781 5786 5791 5795 5799 5803 5806 5809 5812 5814 5816 5818 5821 5822 5824 5826 5827 5828 5829 5830 5831 5832 5833 5834 5834 5834 5834 5834 5834 5833 5832
5692 5695 5698 5700 5703 5706 5710 5713 5718 5723 5729 5734 5739 5744 5750 5756 5761 5767 5772 5777 5782 5786 5790 5794 5798 5801 5804 5806 5808 5810 5813 5815 5817 5818 5820 5821 5822 5823 5824 5826 5827 5827 5828 5828 5828 5828 5828 5827 5826
5684 5686 5688 5691 5694 5697 5700 5704 5708 5713 5719 5724 5730 5735 5741 5747 5752 5758 5763 5768 5773 5777 5781 5785 5789 5792 5795 5797 5800 5802 5804 5807 5809 5811 5812 5813 5815 5816 5817 5818 5819 5820 5821 5822 5822 5822 5821 5821 5820
5676 5678 5680 5682 5685 5688 5691 5694 5699 5704 5709 5714 5720 5726 5731 5737 5743 5749 5754 5759 5764 5768 5772 5776 5780 5783 5786 5789 5791 5794 5796 5798 5801 5803 5804 5805 5807 5809 5810 5811 5812 5813 5814 5814 5815 5815 5815 5814 5814
5668 5670 5672 5675 5676 5679 5683 5687 5692 5695 5699 5705 5711 5717 5722 5728 5734 5740 5745 5750 5754 5759 5763 5767 5770 5774 5777 5780 5783 5785 5788 5790 5792 5794 5796 5797 5799 5800 5802 5803 5804 5805 5806 5807 5807 5808 5808 5808 5807
5660 5662 5665 5668 5669 5672 5675 5679 5685 5687 5691 5697 5702 5708 5714 5719 5725 5731 5736 5741 5745 5750 5753 5757 5761 5765 5768 5771 5774 5776 5779 5781 5783 5785 5787 5788 5790 5791 5793 5795 5796 5797 5798 5799 5800 5800 5800 5800 5800
5656 5657 5659 5662 5664 5666 5669 5672 5676 5680 5684 5689 5695 5700 5706 5711 5717 5722 5727 5732 5736 5740 5744 5747 5752 5755 5758 5761 5764 5766 5769 5772 5774 5776 5778 5780 5782 5783 5785 5786 5788 5789 5790 5791 5792 5792 5792 5792 5792
5650 5652 5654 5656 5658 5661 5663 5666 5669 5672 5676 5681 5686 5692 5697 5703 5708 5713 5718 5723 5727 5731 5735 5739 5741 5745 5748 5751 5754 5757 5759 5762 5764 5766 5768 5771 5773 5775 5776 5778 5779 5781 5782 5783 5783 5784 5784 5784 5784
5645 5646 5648 5650 5653 5655 5657 5660 5663 5666 5669 5674 5678 5684 5689 5694 5699 5704 5709 5714 5718 5722 5725 5728 5732 5735 5739 5741 5744 5746 5749 5752 5754 5757 5759 5762 5764 5766 5768 5769 5771 5772 5773 5775 5775 5775 5776 5776 5776
5641 5643 5644 5646 5648 5650 5652 5655 5658 5660 5663 5666 5671 5675 5680 5686 5690 5695 5700 5705 5709 5713 5716 5719 5722 5726 5729 5732 5734 5737 5740 5742 5744 5747 5750 5752 5755 5757 5758 5760 5762 5763 5765 5766 5767 5767 5767 5768 5767
5638 5639 5640 5642 5643 5644 5647 5649 5653 5655 5657 5660 5664 5668 5672 5677 5681 5686 5691 5696 5700 5704 5707 5710 5714 5717 5719 5722 5724 5727 5730 5733 5735 5737 5740 5743 5745 5747 5749 5751 5752 5754 5755 5757 5758 5758 5759 5759 5759
5634 5635 5637 5638 5639 5640 5642 5644 5648 5649 5652 5655 5657 5661 5665 5669 5673 5677 5682 5686 5691 5694 5698 5701 5704 5707 5710 5713 5715 5717 5720 5723 5725 5727 5730 5732 5735 5737 5740 5741 5743 5745 5746 5747 5748 5749 5750 5750 5750
5631 5632 5633 5634 5635 5636 5638 5639 5642 5644 5647 5649 5652 5655 5658 5661 5665 5669 5673 5677 5681 5685 5689 5691 5695 5698 5701 5703 5705 5707 5710 5712 5715 5717 5720 5722 5725 5727 5730 5732 5734 5735 5737 5738 5739 5740 5740 5741 5741
5628 5629 5630 5630 5630 5632 5634 5634 5637 5639 5642 5643 5646 5648 5650 5653 5656 5660 5664 5668 5672 5676 5679 5682 5686 5689 5691 5693 5695 5698 5700 5702 5705 5708 5710 5712 5715 5718 5720 5722 5724 5726 5727 5728 5729 5730 5731 5731 5732
5625 5626 5627 5627 5627 5628 5629 5630 5633 5634 5636 5637 5638 5640 5642 5645 5648 5651 5655 5659 5663 5667 5670 5673 5676 5679 5682 5684 5686 5688 5690 5692 5695 5698 5700 5703 5705 5708 5710 5712 5714 5716 5717 5719 5720 5721 5722 5722 5722
5621 5622 5623 5624 5623 5624 5624 5625 5627 5628 5629 5631 5632 5633 5635 5637 5640 5643 5646 5650 5654 5657 5661 5664 5666 5669 5672 5674 5676 5678 5681 5683 5686 5688 5691 5694 5696 5698 5701 5703 5705 5706 5708 5709 5710 5711 5712 5713 5713
5619 5619 5620 5620 5619 5619 5620 5621 5621 5622 5623 5625 5626 5627 5628 5630 5632 5635 5638 5642 5645 5648 5651 5654 5656 5659 5662 5664 5666 5669 5671 5673 5676 5679 5682 5684 5686 5689 5691 5693 5695 5696 5698 5698 5700 5701 5702 5703 5704
5615 5615 5615 5615 5615 5615 5615 5618 5616 5617 5618 5619 5620 5620 5622 5623 5625 5627 5630 5633 5636 5639 5642 5644 5647 5649 5652 5654 5657 5659 5661 5664 5667 5669 5672 5675 5677 5679 5681 5684 5685 5687 5688 5689 5690 5691 5693 5694 5694
5611 5611 5612 5612 5611 5610 5610 5615 5611 5612 5612 5613 5613 5614 5615 5617 5618 5620 5623 5626 5629 5631 5633 5636 5638 5640 5642 5645 5647 5650 5652 5655 5657 5660 5662 5665 5668 5670 5672 5674 5676 5678 5679 5680 5681 5682 5683 5684 5685
Wind_Speed
38 38 38 39 40 41 39 36 32 30 29 28 28 27 26 25 24 24 22 21 20 19 18 17 16 15 15 14 14 13 13 12 11 10 9 9 8 8 7 7 6 6 6 6 6 6 6 7 8
39 39 40 42 43 43 40 37 34 32 32 31 30 30 29 28 27 26 24 23 22 21 20 19 18 18 17 16 16 15 14 14 13 12 11 10 10 9 9 8 8 7 7 7 7 7 8 8 9
41 41 42 44 45 44 41 39 37 35 34 34 33 32 32 30 29 27 26 25 24 23 22 21 20 20 19 18 18 17 16 15 14 13 13 12 11 11 10 10 9 9 8 8 8 9 9 10 10
42 44 45 46 45 42 41 40 39 38 37 36 36 35 34 32 31 30 28 27 27 25 25 24 23 22 21 20 20 19 18 17 16 15 15 14 13 12 12 11 11 10 10 10 10 10 11 11 12
44 46 48 48 46 44 43 42 41 41 40 39 39 38 36 35 33 32 31 30 29 28 27 26 25 24 24 23 22 21 20 19 18 17 17 16 15 14 13 13 12 12 12 12 12 12 12 13 13
45 47 49 48 46 45 44 43 43 43 43 42 41 40 38 37 36 34 33 32 31 30 29 28 27 26 26 25 24 23 22 21 20 19 19 18 17 17 16 15 14 14 14 14 14 14 14 14 14
46 48 49 48 46 44 45 45 45 45 44 43 42 42 41 39 38 37 36 35 33 33 31 30 29 28 28 27 26 25 24 23 22 21 21 20 20 19 18 18 17 16 16 16 16 16 16 16 16
46 48 49 49 47 45 45 45 45 45 45 44 44 43 42 41 40 40 39 38 36 34 33 32 31 30 29 28 27 27 26 25 24 24 23 23 22 21 21 20 20 19 18 18 18 18 18 18 18
45 48 48 48 48 47 47 46 45 45 45 45 44 44 43 42 42 41 41 40 38 36 35 34 32 32 31 30 29 29 28 27 27 26 25 25 24 24 23 22 22 21 21 20 20 20 20 20 20
43 46 47 47 47 47 47 46 45 45 45 45 44 44 43 43 42 42 41 40 39 38 36 35 34 33 33 32 31 31 30 29 28 28 27 27 26 26 25 25 24 23 23 22 22 21 22 22 22
40 43 44 45 45 45 46 46 45 44 44 44 44 44 43 42 42 42 41 41 40 39 39 37 36 36 35 34 33 32 31 31 30 30 29 29 28 28 27 27 26 25 25 25 24 23 23 24 24
38 40 41 43 43 43 44 45 46 46 44 43 44 44 43 43 42 42 42 42 41 41 40 39 39 38 37 36 35 35 33 32 32 31 31 30 30 29 29 29 28 27 27 27 26 26 25 25 26
34 37 39 41 42 42 42 43 45 46 45 44 44 44 43 43 43 43 43 43 42 42 41 41 40 39 38 37 37 36 36 35 34 33 32 32 32 31 31 30 30 29 29 28 28 28 28 28 27
32 34 36 38 39 40 40 41 43 44 44 45 45 44 43 43 44 44 44 43 43 43 42 42 41 40 39 39 38 37 37 36 35 34 34 34 34 33 32 32 31 31 31 30 30 29 29 29 29
30 32 33 36 38 38 39 40 42 42 42 45 45 45 44 44 44 44 44 44 44 44 43 42 42 41 41 40 39 38 38 37 36 35 35 36 36 35 34 33 33 33 32 32 31 31 31 31 31
28 30 31 33 35 36 38 38 39 41 42 43 45 45 44 44 44 45 45 45 45 45 44 43 42 42 42 41 41 39 39 38 38 37 37 37 36 36 36 35 35 34 33 33 33 32 32 32 32
25 26 28 30 32 34 36 36 37 39 42 43 44 45 44 44 45 45 45 45 45 45 44 44 44 43 43 43 42 42 41 40 40 39 38 37 38 37 37 37 37 36 35 35 34 34 33 33 33
24 25 27 28 30 32 33 34 35 38 41 42 43 45 45 45 45 45 46 46 45 45 45 44 44 44 44 44 44 44 43 42 41 41 40 39 38 38 38 38 38 37 37 36 35 35 34 34 34
22 24 25 27 28 30 31 31 32 35 39 41 43 44 44 45 46 45 45 45 45 44 44 44 44 45 45 44 44 44 44 42 41 41 41 40 40 39 39 39 39 38 38 37 37 36 36 36 36
20 22 24 25 27 28 29 30 31 32 35 38 40 43 44 44 45 46 45 45 45 44 44 43 44 44 45 46 45 44 44 45 44 43 43 43 42 40 39 39 39 39 40 39 39 39 38 38 38
18 20 22 23 24 26 28 28 28 30 32 35 38 40 43 44 43 44 45 44 44 44 44 44 44 44 45 45 45 46 45 45 45 44 44 43 43 40 40 40 40 40 41 40 39 38 38 39 38
18 19 21 22 23 25 27 27 27 28 31 34 36 38 39 42 43 43 43 43 44 44 44 43 44 44 44 44 45 45 44 45 44 43 44 44 43 42 41 40 40 41 41 41 41 40 39 39 39
15 17 19 21 22 24 26 27 26 27 30 32 34 35 37 39 41 42 43 42 43 44 45 44 43 44 44 43 44 45 45 45 46 45 44 44 44 44 44 42 41 41 41 41 41 41 41 41 39
13 15 16 18 20 22 24 26 26 27 28 30 32 33 36 37 38 40 42 42 43 44 44 44 44 44 45 45 44 45 46 46 46 46 45 44 44 45 45 44 42 42 42 42 42 42 42 41 40
13 13 14 16 18 21 21 24 25 25 26 28 30 32 34 36 37 39 40 41 42 43 44 44 44 44 44 45 45 45 45 46 46 45 45 45 44 43 45 45 45 43 42 42 42 42 41 40 40
13 13 14 16 18 20 22 23 24 25 25 27 30 31 33 35 37 39 39 40 41 42 43 43 44 44 44 44 44 44 45 45 44 45 45 44 44 43 43 44 44 43 43 42 41 40 39 39 39
12 13 15 16 18 18 20 23 25 25 25 26 29 31 32 34 36 38 39 40 41 42 42 43 44 44 44 44 44 44 44 44 44 45 45 45 44 44 44 44 44 44 44 42 41 39 39 38 38
13 13 14 15 17 19 20 22 23 23 25 26 26 27 30 33 35 36 38 39 40 40 42 42 43 44 43 43 42 42 43 43 43 44 44 44 44 44 44 45 44 43 42 42 42 41 40 39 39
15 16 16 15 17 18 20 20 21 22 23 24 25 26 28 31 34 36 37 38 38 38 40 42 42 42 42 42 43 43 42 42 43 43 43 43 43 42 42 42 41 42 42 42 42 42 41 40 39
16 17 17 17 17 19 20 19 20 20 21 21 22 24 26 29 31 34 36 37 37 37 38 39 40 41 42 42 43 42 43 43 43 42 43 43 43 43 42 41 41 41 42 42 41 41 41 42 41
Wind_Direction
243 242 241 240 240 240 240 240 240 240 240 240 240 240 240 241 241 240 239 238 237 235 234 234 235 234 234 233 232 231 232 233 235 239 238 237 236 238 241 245 252 260 270 277 284 291 296 300 302
243 242 241 240 240 241 241 241 241 241 241 240 240 239 240 240 240 240 239 238 237 236 236 236 236 236 235 235 236 237 236 235 236 239 240 240 239 240 244 248 253 260 268 274 281 286 291 295 298
243 242 242 241 242 243 244 242 242 241 241 240 240 240 239 239 239 238 238 237 236 236 236 236 237 237 236 236 237 238 238 237 237 240 242 242 241 243 247 251 255 261 266 272 278 283 287 289 292
243 242 243 243 243 244 245 244 242 241 241 240 240 240 240 239 239 238 236 236 235 236 236 236 238 238 238 238 238 238 239 239 239 241 243 243 243 244 248 253 257 260 265 271 277 282 285 287 289
244 243 243 244 245 245 246 245 243 242 241 240 240 240 240 239 239 237 235 235 235 236 236 236 238 240 240 240 240 240 241 241 241 242 243 244 246 246 249 253 257 260 264 269 275 281 284 287 289
244 244 244 245 246 246 245 245 243 243 241 240 240 239 238 238 237 236 235 235 235 236 236 236 238 240 241 241 242 243 243 243 243 243 243 245 247 249 251 255 257 261 264 269 274 279 284 286 288
245 244 245 244 245 245 244 243 242 242 241 240 239 238 237 236 235 234 234 235 235 235 236 236 237 239 240 241 242 243 244 245 245 245 246 246 248 250 252 255 258 261 265 269 273 277 281 284 285
245 245 244 244 245 244 243 242 242 242 241 240 238 237 235 234 234 233 233 234 234 234 235 236 237 238 240 241 242 243 244 245 245 246 247 249 250 252 253 255 258 262 265 269 272 275 278 281 283
246 244 244 244 244 243 241 241 241 241 240 238 237 236 235 233 232 232 232 233 234 234 235 236 237 239 240 242 243 244 244 245 246 247 248 250 251 253 255 256 259 261 265 268 271 274 277 280 281
248 246 244 243 244 242 241 241 239 238 238 237 236 235 234 233 231 231 231 232 233 234 235 236 238 239 240 241 243 244 245 246 246 247 249 251 252 254 256 257 259 261 265 267 270 272 276 279 280
248 247 246 244 243 241 240 238 237 236 236 235 234 233 232 232 230 230 231 231 232 234 236 237 238 239 240 241 242 244 246 246 247 248 250 251 252 254 256 257 259 261 264 267 269 272 275 278 279
249 248 247 245 243 242 240 238 236 234 233 232 232 231 231 230 229 229 231 232 232 233 236 237 237 238 240 241 243 244 245 247 248 249 250 251 252 253 255 257 259 261 263 266 268 271 275 277 278
249 247 246 244 242 241 240 238 237 234 232 231 231 230 229 230 229 228 230 232 233 234 235 237 238 239 240 242 243 244 245 246 247 248 249 250 252 254 255 257 259 261 262 264 267 270 273 276 277
250 247 245 243 241 239 239 238 237 235 232 231 230 230 229 229 229 229 230 232 232 233 235 236 237 239 240 242 243 243 244 245 246 247 248 250 252 253 255 256 258 260 262 264 266 269 272 275 277
250 247 244 242 240 239 238 237 237 236 233 231 230 229 230 229 228 229 230 231 232 233 235 236 237 238 239 241 242 243 245 245 246 247 249 250 251 253 254 255 257 259 261 263 266 268 271 274 276
250 245 242 240 239 238 238 237 235 234 232 230 229 229 230 230 229 230 230 231 232 233 234 235 236 238 240 241 242 243 244 245 246 246 248 250 251 253 254 255 256 258 260 262 265 267 270 272 274
249 245 242 239 238 239 239 239 236 235 233 231 229 229 230 231 230 230 231 232 232 233 234 234 236 237 239 241 242 243 244 245 246 246 247 249 251 252 254 255 256 258 260 262 264 267 269 270 273
251 245 242 238 237 239 239 239 238 235 234 233 231 230 230 231 231 231 231 232 233 234 234 235 236 237 238 240 241 243 243 244 246 246 248 249 251 253 254 254 255 257 260 262 263 265 267 268 271
254 247 244 240 239 240 240 238 238 236 235 234 232 231 232 233 233 231 232 232 234 235 235 235 237 238 239 240 240 242 242 242 244 245 247 248 250 252 254 255 255 257 258 261 263 264 266 268 271
251 245 244 242 241 239 237 237 238 238 236 235 234 232 232 233 234 233 232 232 234 235 236 237 238 238 239 240 240 241 243 243 243 245 246 247 248 250 253 254 255 256 258 260 262 264 266 268 270
247 243 241 241 238 237 239 239 239 238 236 235 234 234 233 233 234 234 233 233 233 235 237 241 239 239 240 241 243 244 244 244 243 243 245 246 247 250 252 254 255 256 257 260 262 264 265 267 268
249 245 244 243 241 239 238 239 235 237 237 237 236 236 234 233 234 234 234 234 234 235 237 240 240 239 240 243 244 245 244 244 244 245 247 247 248 249 251 254 255 257 259 260 262 263 264 266 268
252 248 247 244 244 244 241 243 240 240 240 240 239 237 236 235 234 234 234 234 235 235 237 239 239 239 241 243 245 247 246 246 246 247 246 247 247 249 251 253 255 258 259 261 263 264 265 266 268
253 249 247 246 245 245 244 247 247 244 243 242 242 240 238 238 237 236 235 236 237 237 238 240 240 241 243 244 246 247 248 247 247 248 248 248 249 250 252 252 255 257 259 260 262 263 265 266 268
256 249 245 246 246 248 247 249 250 247 246 245 243 241 240 239 238 237 237 237 237 238 240 241 242 243 245 245 245 246 248 248 248 248 248 248 249 251 252 253 255 256 257 260 260 262 264 265 268
257 250 250 251 253 252 248 250 252 251 251 248 245 244 243 240 239 238 237 238 238 240 241 242 243 245 246 246 246 246 246 247 247 248 248 249 250 252 252 253 255 256 257 259 260 261 263 266 269
256 253 257 258 258 259 255 253 254 254 255 252 248 247 245 241 240 238 237 238 239 240 242 243 245 246 246 246 247 246 246 247 249 249 249 250 252 253 254 254 255 257 259 260 261 263 264 265 268
257 260 263 264 264 263 262 259 258 257 257 254 251 248 244 241 239 237 237 238 239 240 242 243 246 247 246 247 247 247 247 247 249 249 249 251 253 254 256 256 257 258 259 260 262 263 265 266 269
262 260 260 266 269 265 265 263 262 261 261 260 256 248 242 242 241 239 237 237 240 242 242 244 245 246 246 247 247 247 247 247 248 248 250 251 252 254 256 258 259 260 259 261 263 264 266 267 269
266 264 260 262 270 268 265 266 264 264 263 264 261 252 245 244 244 242 240 239 241 243 243 245 246 246 247 247 248 248 249 249 249 251 251 251 252 253 255 258 261 262 262 262 264 266 267 268 269